When you browse on this site, cookies collect data to enhance your experience and personalize the content and advertising you see.
Visit our Privacy Policy to learn more. By continuing to use the site, you agree to this use of cookies and data.
  • In Österreich
  • Länderverzeichnis
  • Für 7 Tage
  • Wassertemperatur
  • Satellitenkarten
  • Wetterkarte
  • News
  • Widgets
  • user-avatar
    Anmelden

    Stündliche Wetter Acapulco

    Heute, 13 Dezember, Donnerstag

    Zeit Temperatur Niederschläge Wind Luftdruck Luftfeuchtigkeit
    00:00 +25°C° 0 mm 3 m/S 757 mmHg 76%
    01:00 +25°C° 0 mm 2 m/S 757 mmHg 75%
    02:00 +25°C° 0 mm 2 m/S 757 mmHg 74%
    03:00 +25°C° 0 mm 2 m/S 757 mmHg 72%
    04:00 +25°C° 0 mm 2 m/S 757 mmHg 71%
    05:00 +24°C° 0 mm 2 m/S 757 mmHg 69%
    06:00 +26°C° 0 mm 1 m/S 757 mmHg 65%
    07:00 +27°C° 0 mm 1 m/S 757 mmHg 61%
    08:00 +29°C° 0 mm 1 m/S 758 mmHg 57%
    09:00 +31°C° 0 mm 1 m/S 758 mmHg 51%
    10:00 +33°C° 0 mm 1 m/S 757 mmHg 45%
    11:00 +35°C° 0 mm 1 m/S 757 mmHg 39%
    12:00 +35°C° 0 mm 2 m/S 757 mmHg 41%
    13:00 +35°C° 0 mm 2 m/S 756 mmHg 43%
    14:00 +34°C° 0 mm 3 m/S 755 mmHg 45%
    15:00 +33°C° 0 mm 3 m/S 755 mmHg 54%
    16:00 +30°C° 0 mm 3 m/S 755 mmHg 62%
    17:00 +28°C° 0 mm 3 m/S 755 mmHg 70%
    18:00 +27°C° 0 mm 3 m/S 755 mmHg 72%
    19:00 +27°C° 0 mm 3 m/S 756 mmHg 73%
    20:00 +26°C° 0 mm 3 m/S 756 mmHg 74%
    21:00 +26°C° 0 mm 3 m/S 756 mmHg 73%
    22:00 +26°C° 0 mm 3 m/S 756 mmHg 72%
    23:00 +25°C° 0 mm 2 m/S 757 mmHg 72%

    Morgen, 14 Dezember, Freitag

    Zeit Temperatur Niederschläge Wind Luftdruck Luftfeuchtigkeit
    00:00 +25°C° 0 mm 2 m/S 756 mmHg 71%
    01:00 +25°C° 0 mm 2 m/S 756 mmHg 71%
    02:00 +25°C° 0 mm 2 m/S 756 mmHg 71%
    03:00 +25°C° 0 mm 2 m/S 756 mmHg 71%
    04:00 +24°C° 0 mm 2 m/S 756 mmHg 70%
    05:00 +24°C° 0 mm 2 m/S 756 mmHg 70%
    06:00 +26°C° 0 mm 2 m/S 756 mmHg 66%
    07:00 +28°C° 0 mm 2 m/S 757 mmHg 62%
    08:00 +29°C° 0 mm 1 m/S 757 mmHg 58%
    09:00 +31°C° 0 mm 1 m/S 757 mmHg 53%
    10:00 +32°C° 0 mm 1 m/S 757 mmHg 49%
    11:00 +34°C° 0 mm 1 m/S 757 mmHg 45%
    12:00 +34°C° 0 mm 1 m/S 756 mmHg 46%
    13:00 +34°C° 0 mm 2 m/S 755 mmHg 48%
    14:00 +34°C° 0 mm 2 m/S 755 mmHg 49%
    15:00 +31°C° 0 mm 2 m/S 755 mmHg 58%
    16:00 +29°C° 0 mm 1 m/S 755 mmHg 67%
    17:00 +28°C° 0 mm 1 m/S 755 mmHg 75%
    18:00 +27°C° 0 mm 1 m/S 756 mmHg 78%
    19:00 +26°C° 0 mm 1 m/S 756 mmHg 81%
    20:00 +25°C° 0 mm 1 m/S 757 mmHg 84%
    21:00 +25°C° 0 mm 1 m/S 757 mmHg 84%
    22:00 +25°C° 0 mm 2 m/S 757 mmHg 83%
    23:00 +25°C° 0 mm 2 m/S 757 mmHg 83%

    übermorgen, 15 Dezember, Samstag

    Zeit Temperatur Niederschläge Wind Luftdruck Luftfeuchtigkeit
    00:00 +25°C° 0 mm 2 m/S 757 mmHg 82%
    01:00 +24°C° 0 mm 2 m/S 756 mmHg 81%
    02:00 +24°C° 0 mm 2 m/S 756 mmHg 81%
    03:00 +24°C° 0 mm 2 m/S 756 mmHg 79%
    04:00 +24°C° 0 mm 2 m/S 756 mmHg 78%
    05:00 +24°C° 0 mm 2 m/S 757 mmHg 77%
    06:00 +26°C° 0 mm 2 m/S 757 mmHg 72%
    07:00 +27°C° 0 mm 2 m/S 758 mmHg 67%
    08:00 +29°C° 0 mm 1 m/S 758 mmHg 62%
    09:00 +31°C° 0 mm 1 m/S 758 mmHg 56%
    10:00 +33°C° 0 mm 1 m/S 758 mmHg 51%
    11:00 +34°C° 0 mm 1 m/S 758 mmHg 46%
    12:00 +35°C° 0 mm 2 m/S 757 mmHg 47%
    13:00 +35°C° 0 mm 2 m/S 756 mmHg 49%
    14:00 +34°C° 0 mm 2 m/S 755 mmHg 50%
    15:00 +32°C° 0 mm 2 m/S 756 mmHg 58%
    16:00 +30°C° 0 mm 1 m/S 756 mmHg 67%
    17:00 +28°C° 0 mm 1 m/S 756 mmHg 75%
    18:00 +28°C° 0 mm 1 m/S 756 mmHg 77%
    19:00 +27°C° 0 mm 1 m/S 757 mmHg 79%
    20:00 +26°C° 0 mm 2 m/S 758 mmHg 81%
    21:00 +26°C° 0 mm 2 m/S 758 mmHg 80%
    22:00 +26°C° 0 mm 2 m/S 758 mmHg 79%
    23:00 +26°C° 0 mm 2 m/S 758 mmHg 77%

    16 Dezember, Sonntag

    Zeit Temperatur Niederschläge Wind Luftdruck Luftfeuchtigkeit
    00:00 +25°C° 0 mm 1 m/S 758 mmHg 76%
    01:00 +25°C° 0 mm 1 m/S 758 mmHg 75%
    02:00 +25°C° 0 mm 1 m/S 757 mmHg 73%
    03:00 +25°C° 0 mm 1 m/S 758 mmHg 72%
    04:00 +25°C° 0 mm 1 m/S 758 mmHg 71%
    05:00 +25°C° 0 mm 2 m/S 758 mmHg 70%
    06:00 +26°C° 0 mm 1 m/S 759 mmHg 66%
    07:00 +28°C° 0 mm 1 m/S 759 mmHg 61%
    08:00 +29°C° 0 mm 1 m/S 760 mmHg 57%
    09:00 +31°C° 0 mm 1 m/S 759 mmHg 53%
    10:00 +33°C° 0 mm 1 m/S 759 mmHg 48%
    11:00 +35°C° 0 mm 1 m/S 759 mmHg 43%
    12:00 +35°C° 0 mm 2 m/S 758 mmHg 45%
    13:00 +35°C° 0 mm 2 m/S 757 mmHg 46%
    14:00 +35°C° 0 mm 3 m/S 757 mmHg 47%
    15:00 +33°C° 0 mm 3 m/S 757 mmHg 55%
    16:00 +30°C° 0 mm 3 m/S 757 mmHg 62%
    17:00 +29°C° 0 mm 3 m/S 757 mmHg 70%
    18:00 +28°C° 0 mm 3 m/S 757 mmHg 71%
    19:00 +27°C° 0 mm 3 m/S 758 mmHg 73%
    20:00 +26°C° 0 mm 2 m/S 759 mmHg 75%
    21:00 +26°C° 0 mm 2 m/S 758 mmHg 74%
    22:00 +26°C° 0 mm 2 m/S 758 mmHg 72%
    23:00 +26°C° 0 mm 2 m/S 758 mmHg 71%

    17 Dezember, Montag

    Zeit Temperatur Niederschläge Wind Luftdruck Luftfeuchtigkeit
    00:00 +26°C° 0 mm 2 m/S 758 mmHg 70%
    01:00 +26°C° 0 mm 2 m/S 757 mmHg 69%
    02:00 +25°C° 0 mm 2 m/S 757 mmHg 68%
    03:00 +25°C° 0 mm 2 m/S 757 mmHg 67%
    04:00 +25°C° 0 mm 2 m/S 757 mmHg 66%
    05:00 +25°C° 0 mm 1 m/S 758 mmHg 65%
    06:00 +26°C° 0 mm 1 m/S 758 mmHg 61%
    07:00 +28°C° 0 mm 1 m/S 758 mmHg 57%
    08:00 +29°C° 0 mm 1 m/S 759 mmHg 53%
    09:00 +31°C° 0 mm 1 m/S 759 mmHg 48%
    10:00 +33°C° 0 mm 1 m/S 758 mmHg 44%
    11:00 +35°C° 0 mm 1 m/S 758 mmHg 39%
    12:00 +35°C° 0 mm 2 m/S 757 mmHg 41%
    13:00 +35°C° 0 mm 2 m/S 756 mmHg 44%
    14:00 +35°C° 0 mm 2 m/S 755 mmHg 46%
    15:00 +32°C° 0 mm 2 m/S 755 mmHg 55%
    16:00 +30°C° 0 mm 2 m/S 756 mmHg 64%
    17:00 +28°C° 0 mm 2 m/S 756 mmHg 72%
    18:00 +27°C° 0 mm 2 m/S 756 mmHg 75%
    19:00 +27°C° 0 mm 2 m/S 757 mmHg 77%
    20:00 +26°C° 0 mm 2 m/S 757 mmHg 80%
    21:00 +26°C° 0 mm 2 m/S 757 mmHg 79%
    22:00 +26°C° 0 mm 2 m/S 757 mmHg 78%
    23:00 +25°C° 0 mm 1 m/S 757 mmHg 77%

    18 Dezember, Dienstag

    Zeit Temperatur Niederschläge Wind Luftdruck Luftfeuchtigkeit
    00:00 +25°C° 0 mm 1 m/S 757 mmHg 76%
    01:00 +25°C° 0 mm 2 m/S 757 mmHg 75%
    02:00 +25°C° 0 mm 2 m/S 756 mmHg 74%
    03:00 +25°C° 0 mm 2 m/S 757 mmHg 73%
    04:00 +25°C° 0 mm 2 m/S 757 mmHg 72%
    05:00 +25°C° 0 mm 2 m/S 757 mmHg 71%
    06:00 +26°C° 0 mm 2 m/S 757 mmHg 66%
    07:00 +28°C° 0 mm 1 m/S 758 mmHg 62%
    08:00 +29°C° 0 mm 1 m/S 758 mmHg 57%
    09:00 +31°C° 0 mm 1 m/S 758 mmHg 54%
    10:00 +32°C° 0 mm 1 m/S 757 mmHg 50%
    11:00 +34°C° 0 mm 1 m/S 757 mmHg 47%
    12:00 +35°C° 0 mm 2 m/S 756 mmHg 49%
    13:00 +34°C° 0 mm 2 m/S 756 mmHg 51%
    14:00 +34°C° 0 mm 2 m/S 755 mmHg 54%
    15:00 +31°C° 0 mm 2 m/S 755 mmHg 62%
    16:00 +30°C° 0 mm 2 m/S 755 mmHg 70%
    17:00 +28°C° 0 mm 2 m/S 755 mmHg 78%
    18:00 +27°C° 0 mm 1 m/S 756 mmHg 81%
    19:00 +27°C° 0 mm 1 m/S 756 mmHg 84%
    20:00 +26°C° 0 mm 1 m/S 757 mmHg 87%
    21:00 +26°C° 0 mm 1 m/S 757 mmHg 87%
    22:00 +25°C° 0 mm 1 m/S 757 mmHg 87%
    23:00 +25°C° 0 mm 1 m/S 757 mmHg 87%
    Mehr zeigen